Tracking 19286 objects as of 18-Nov-2018
HD Live streaming from Space Station
objects crossing your sky now

GARUDA 1

Track GARUDA 1 now!
GARUDA 1 is classified as:


NORAD ID: 26089
Int'l Code: 2000-011A
Perigee: 35,869.6 km
Apogee: 35,922.6 km
Inclination: 2.9 °
Period: 1,441.3 minutes
Semi major axis: 42267 km
RCS: 16.0243 m2 (large)
Launch date: February 12, 2000
Source: Indonesia (INDO)
Launch site: TYURATAM MISSILE AND SPACE COMPLEX (TTMTR)

L-band; mobile telephone communications.
aabbcc
Your satellite tracking list
Your tracking list is empty




NASA's NSSDC Master Catalog

Two Line Element Set (TLE):
1 26089U 00011A   18322.05577727 -.00000284  00000-0  00000+0 0  9997
2 26089   2.9183 101.3947 0006264 162.8760 281.1539  0.99907768 68663
Source of the keplerian elements: AFSPC